Location: Unspecified
(51.0950°N, 12.9690°E)
Time: 04:56:37
(UTC+00:00)

CUBEBUG 2 - Pass Details

Date: 29 April 2024
Orbit: 570 x 668 km, 97.8° (Epoch: 24 May)

Event Time Altitude Azimuth Distance (km) Brightness Sun altitude
Rises 00:19:58 0° 26° (NNE) 2,808 ? -22.4°
Reaches altitude 10° 00:22:38 10° 45° (NE) 1,915 ? -22.2°
Maximum altitude 00:25:39 19° 92° (E) 1,417 ? -22.0°
Enters shadow 00:27:20 16° 122° (ESE) 1,595 ? -22.0°
